Location: Prairie Dale
(45.6972°N, 104.5033°W)
Time: 09:41:24
(UTC+00:00)

STARS - Pass Details

Date: 04 July 2022
Orbit: 620 x 637 km, 98.2° (Epoch: 14 August)

Event Time Altitude Azimuth Distance (km) Brightness Sun altitude
Rises 05:46:07 0° 13° (NNE) 2,931 ? -19.3°
Reaches altitude 10° 05:48:20 10° 14° (NNE) 2,016 ? -19.4°
Maximum altitude 05:52:44 90° 119° (ESE) 633 ? -19.6°
Enters shadow 05:54:08 43° 194° (SSW) 878 ? -19.7°
